User: anonymous   Login
Location: York
(31.8935°S, 116.7682°E)
Time: 10:00:03
(UTC+08:00)
Language:

ISS - Orbit

View from above orbital plane
View from above orbital plane
View from above satellite
View from above satellite

Ground track
Ground track

The orbit data is extracted from the following two-line orbital elements,

1 25544U 98067A   21175.84558301  .00058267  00000-0  10669-2 0  9992
2 25544  51.6443 304.8451 0002232 101.7784 359.3562 15.48759103289787
Epoch (UTC): 24 June 2021 20:17:38
Eccentricity: 0.0002232
inclination: 51.6443°
perigee height: 419 km
apogee height: 422 km
right ascension of ascending node: 304.8451°
argument of perigee: 101.7784°
revolutions per day: 15.48759103
mean anomaly at epoch: 359.3562°
orbit number at epoch: 28978

The dashed part of the orbit path shows where the satellite is in the earth's shadow,  

DLR